Weather History for Greybull, WY

Change the Weather History Date:

Thursday, January 17, 2013

  Actual Average Record
Temperature  
Mean Temperature 4 °F 17 °F  
Max Temperature 18 °F 29 °F 46 °F (2010)
Min Temperature -10 °F 5 °F -10 °F (2013)
Degree Days  
Heating Degree Days 61 48  
Month to date heating degree days 924 827  
Since 1 July heating degree days 3903 4150  
Cooling Degree Days 0 0  
Month to date cooling degree days 0 0  
Year to date cooling degree days 0 0  
Moisture  
Dew Point -3 °F    
Average Humidity 87    
Maximum Humidity 100    
Minimum Humidity 73    
Precipitation  
Precipitation 0.00 in 0.00 in 0.25 in (2008)
Month to date precipitation 0.11 0.13  
Year to date precipitation 0.11 0.13  
Sea Level Pressure  
Sea Level Pressure 30.60 in    
Wind  
Wind Speed 2 mph (NW)    
Max Wind Speed 8 mph    
Max Gust Speed 10 mph    
Visibility 10 miles    
Events      
T = Trace of Precipitation, MM = Missing Value Source: NWS Daily Summary

Daily Weather History Graph

Daily Weather History Graph

Search for Another Location

Airport:

Trip Planner

Search our weather history database for the weather conditions in past years. The results will help you decide how hot, cold, wet, or windy it might be!

Date:

Astronomy

Jan. 17, 2013 Rise Set
Actual Time 7:44 AM MST 5:01 PM MST
Civil Twilight 7:11 AM MST 5:33 PM MST
Nautical Twilight 6:35 AM MST 6:09 PM MST
Astronomical Twilight 6:01 AM MST 6:44 PM MST
Moon 10:34 AM MST (1/17) No Moon Set
Length of Visible Light 10h 21m
Length of Day
9h 17m
Waxing Crescent, 38% of the Moon is Illuminated
Jan 17
Waxing Crescent
Jan 18
First Quarter
Jan 26
Full
Feb 3
Last Quarter
Feb 10
New

Hourly Weather History & Observations

Time (MST) Temp. Windchill Dew Point Humidity Pressure Visibility Wind Dir Wind Speed Gust Speed Precip Events Conditions
12:53 AM -4.0 °F -14.6 °F -7.1 °F 87% 30.65 in 10.0 mi SE 4.6 mph - N/A   Clear
1:53 AM -2.9 °F -13.3 °F -6.0 °F 87% 30.66 in 10.0 mi ESE 4.6 mph - N/A   Clear
2:53 AM -6.0 °F - -9.0 °F 87% 30.67 in 10.0 mi Calm Calm - N/A   Clear
3:53 AM -8.0 °F -16.9 °F -11.9 °F 83% 30.68 in 10.0 mi NNW 3.5 mph - N/A   Clear
4:53 AM -7.1 °F - -11.0 °F 83% 30.69 in 10.0 mi Calm Calm - N/A   Clear
5:53 AM -7.1 °F - -11.0 °F 83% 30.69 in 10.0 mi Calm Calm - N/A   Clear
6:53 AM -8.0 °F - -11.9 °F 83% 30.71 in 10.0 mi Calm Calm - N/A   Clear
7:53 AM -8.0 °F - -11.9 °F 83% 30.72 in 10.0 mi Calm Calm - N/A   Clear
8:53 AM -7.1 °F - -8.0 °F 96% 30.73 in 10.0 mi Calm Calm - N/A   Clear
9:53 AM -0.9 °F - -5.1 °F 83% 30.72 in 10.0 mi Calm Calm - N/A   Clear
10:53 AM 1.9 °F -7.6 °F -2.0 °F 83% 30.70 in 10.0 mi NNW 4.6 mph - 0.00 in   Clear
11:53 AM 6.1 °F -0.9 °F 1.0 °F 80% 30.64 in 10.0 mi NNW 3.5 mph - N/A   Clear
12:53 PM 10.9 °F 2.9 °F 3.9 °F 73% 30.59 in 10.0 mi North 4.6 mph - N/A   Clear
1:53 PM 14.0 °F 8.2 °F 7.0 °F 74% 30.54 in 10.0 mi NNW 3.5 mph - N/A   Clear
2:53 PM 15.1 °F - 8.1 °F 74% 30.52 in 10.0 mi Calm Calm - N/A   Clear
3:53 PM 15.1 °F 7.7 °F 8.1 °F 74% 30.52 in 10.0 mi NW 4.6 mph - N/A   Clear
4:53 PM 12.0 °F - 6.1 °F 77% 30.52 in 10.0 mi Calm Calm - N/A   Clear
5:53 PM 9.0 °F - 6.1 °F 88% 30.53 in 10.0 mi Calm Calm - N/A   Clear
6:53 PM 3.0 °F -6.4 °F 1.0 °F 91% 30.55 in 10.0 mi NW 4.6 mph - N/A   Clear
7:53 PM 1.9 °F -7.6 °F -2.0 °F 83% 30.54 in 10.0 mi West 4.6 mph - N/A   Clear
8:53 PM -0.0 °F -14.2 °F -2.9 °F 88% 30.54 in 10.0 mi NW 8.1 mph - N/A   Clear
9:53 PM 1.0 °F -6.7 °F -2.9 °F 83% 30.49 in 10.0 mi South 3.5 mph - N/A   Clear
10:53 PM 1.0 °F - -2.0 °F 87% 30.46 in 8.0 mi Calm Calm - N/A   Clear
11:53 PM -0.0 °F - -4.0 °F 83% 30.44 in 7.0 mi Calm Calm - N/A   Clear